Location: *
(51.2167°N, 10.0667°E)
Time: 08:06:21
(UTC+00:00)

Meteor 1-10 Rocket - Pass Details

Date: 12 December 2019
Orbit: 837 x 909 km, 81.3° (Epoch: 24 January)

Event Time Altitude Azimuth Distance (km) Brightness Sun altitude
Rises 15:43:58 0° 176° (S) 3,378 7.7 -5.0°
Reaches altitude 10° 15:46:23 10° 172° (S) 2,451 6.9 -5.3°
Maximum altitude 15:51:47 55° 95° (E) 1,013 4.4 -6.0°
Drops below altitude 10° 15:57:17 10° 20° (NNE) 2,502 6.2 -6.8°
Sets 15:59:47 0° 16° (NNE) 3,454 7.0 -7.1°
